CZ-6A DEB

Satellite information

Favourite Embed

Satellite Type and Status

DEBRISIN ORBIT

Key statistics

Satellite CZ-6A DEB at a glance.

Uptime

439

Days in orbit

Revolutions

≈ 14.6

Per day

Orbit

LEO

Low Earth Orbit

Inclination

89.0

Latest

Satellite identification and parameters

Extended collection of information and parameters for CZ-6A DEB.

Object identification

Identified? True

Debris? True

Object name: CZ-6A DEB

International designator: 2024-140Z

Object number (NORAD): 60624

Object ID (CCSDS): 60624

Country: PEOPLES REPUBLIC OF CHINA (PRC)

Current information (Y/N): Y

RCS size: LARGE

Orbital parameters

Period: 98.894 minutes

Inclination: 89.0353 deg

SMA: 7083.929 km

Apoapsis: 787.276 km

Periapsis: 624.311 km

RAAN: 301.0273 deg

Eccentricy: 0.01150243

Argument of periapsis: 5.8239 deg

Mean anomaly: 354.4276 deg

Mean motion: 14.56100977 rev/day

Mean motion (dot): 0.00004337 rev/day2

B* drag term: 0.00089583114 1/REarth

Two-line elements (TLE)

Creation date: Oct. 19, 2025, 2:20 a.m.

Reference frame: TEME

Reference center: EARTH

Epoch: Oct. 18, 2025, 11:43 p.m. UTC

TLE line 0: 0 CZ-6A DEB

TLE line 1: 1 60624U 24140Z 25291.98835483 .00004337 00000-0 89583-3 0 9999

TLE line 2: 2 60624 89.0353 301.0273 0115024 5.8239 354.4276 14.56100977 63576

Live tracking on map

Real-time ground track for satellite CZ-6A DEB.

In-orbit conjunctions

A list of the most updated potential collisions computed for object CZ-6A DEB.

Target Orbit TCA Probability of collision Miss distance Type
PEGASUS DEB LEO 2025-02-22 14:34:08 0.002797553 330.0 (m) DEBRIS
COSMOS 2251 DEB LEO 2025-01-29 21:52:22 0.0005173318 336.0 (m) DEBRIS
COSMOS 2251 DEB LEO 2024-12-12 03:40:59 0.0001529682 70.0 (m) DEBRIS
COSMOS 2251 DEB LEO 2024-11-28 14:44:27 0.0001023602 941.0 (m) DEBRIS
RUBIN 3/SL-8 SSO 2024-11-26 18:22:43 0.0001667711 972.0 (m) PAYLOAD

Associated space launch

18 Low Earth Orbit communication satellites with Ku, Q and V band payloads for the G60 constellation operated by Shanghai Spacecom Satellite Technology (SSST) with funding backed by the Shanghai local government. Initial constellation will consist of 1296 satellites by 2027 with long term plans to expand it to 12000 satellites.

CZ-6A DEB was lifted into orbit during the mission ‘Long March 6A | G60 Polar Group 01’, on board a Long March 6A space rocket.

The launch took place on Aug. 6, 2024, 6:42 a.m. from Launch Complex 9A.

For more information about the launch, click the button.

Launch to space Long March 6A | G60 Polar Group 01
Long March 6A | G60 Polar Group 01

Agency: N/A

Status: Launch Successful

Launch date: Aug. 6, 2024, 6:42 a.m. UTC

Rocket: Long March 6A

Launch pad: Launch Complex 9A

Location: Taiyuan Satellite Launch Center, People's Republic of China

...

Latest news about this satellite

News about space launch
Brightness of first Chinese broadband constellation satellites alarms astronomers

The first satellites of a Chinese broadband constellation are significantly brighter than those of Western systems, posing a new challenge for astronomers.

News about space launch
Chinese rocket stage breaks up into cloud of more than 700 pieces of space debris

HELSINKI — A Chinese Long March 6A rocket’s upper stage has fragmented into a cloud of over 700 pieces of space debris, adding to concerns about long-term orbital safety. China […]

News about space launch
China's Thousand Sails Megaconstellation Kicks Off with Dangerous Debris Field

China's Thousand Sails Megaconstellation Kicks Off with Dangerous Debris Field


Newsletter sign-up

Weekly statistics, charts and insights to help you stay on top of the space industry.